Miscellaneous Local Product
Issued by NWS North Platte, NE

Home | Current Version | Previous Version | Text Only | Print | Product List | Glossary On
Versions: 1 2 3 4 5 6 7 8 9 10 11 12 13 14 15 16 17 18 19 20 21 22 23 24 25 26 27 28 29 30 31 32 33 34 35 36 37 38 39 40 41 42 43 44 45 46 47 48 49 50
000
AXUS43 KLBF 250510
MISLBF


WESTERN AND NORTH CENTRAL NEBRASKA HOURLY WEATHER ROUNDUP
NATIONAL WEATHER SERVICE NORTH PLATTE NE
1200 AM CDT SAT APR 25 2015

***STATIONS NOT REPORTING VARIABLES SUCH AS SKY/WEATHER OR
PRESSURE ARE PROVIDED BY THE NEBRASKA DEPARTMENT OF
ROADS...RAWS...AND APRS NETWORKS...AND ARE NOT UNDER
NATIONAL WEATHER SERVICE QUALITY CONTROL***

...OBSERVATIONS IN AND NEAR THE EASTERN PANHANDLE OF NEBRASKA...

CITY           SKY/WX    TMP DP  RH WIND       PRES   REMARKS
PINE RIDGE     MOCLDY    47  44  90 CALM      29.62R
CHADRON        PTCLDY    44  41  89 SW6       29.61F
ALLIANCE       PTCLDY    47  42  83 N8        29.60F
SIDNEY         CLOUDY    52  37  56 W12       29.62R
$$

...OBSERVATIONS IN NORTH CENTRAL NEBRASKA...

CITY           SKY/WX    TMP DP  RH WIND       PRES   REMARKS
VALENTINE      CLOUDY    56  46  69 N22G30    29.52F
THEDFORD       LGT RAIN  57  47  69 CALM      29.55F
AINSWORTH      CLOUDY    57  47  70 CALM      29.54S
O`NEILL        CLOUDY    59  56  88 SE9       29.51F
ORD            CLOUDY    56  46  69 E7        29.48F
BROKEN BOW     CLOUDY    54  45  71 E5        29.49F
$$

...OBSERVATIONS IN SOUTHWEST NEBRASKA AND FAR NORTHEAST COLORADO...

CITY           SKY/WX    TMP DP  RH WIND       PRES   REMARKS
WRAY           FAIR      49  42  76 W9        29.60S
HOLYOKE        FAIR      48  41  76 NW6       29.60S
IMPERIAL       CLOUDY    52  42  69 NE6       29.56R
OGALLALA       MOCLDY    55  44  66 NW10      29.55S
MCCOOK         TSTM      58  55  90 E7        29.53R FOG
LEXINGTON      CLOUDY    57  54  92 NE7       29.53F
$$

...NORTH PLATTE AREA...

CITY           SKY/WX    TMP DP  RH WIND       PRES   REMARKS
$$

...SOME WEATHER OBSERVATIONS FROM AROUND THE REGION...

CITY           SKY/WX    TMP DP  RH WIND       PRES   REMARKS
DENVER         PTCLDY    48  33  56 SW12      29.70S
LARAMIE        MOCLDY    38  32  79 SW13      29.76S WCI  30
CHEYENNE       MOCLDY    45  34  65 W18       29.71S
SCOTTSBLUFF    MOCLDY    49  42  77 SW8       29.63R
RAPID CITY     PTCLDY    46  42  86 NW8       29.62S
PIERRE         PTCLDY    51  44  77 NE22      29.54S
WINNER         LGT RAIN  59  47  64 W20       29.52R
SIOUX FALLS    CLOUDY    52  47  83 SE12      29.61R
OMAHA          CLOUDY    58  53  84 E14       29.55F
GRAND ISLAND   LGT RAIN  56  54  93 N7        29.51F FOG
KANSAS CITY    CLOUDY    61  55  81 SE15      29.54F
WICHITA        MOCLDY    64  59  83 S18       29.46F THUNDER
HAYS           CLOUDY    54  48  82 SE6       29.49F
LIBERAL        CLOUDY    54  43  66 W7        29.60R
GOODLAND       CLOUDY    51  43  74 W13       29.60R
$$



USA.gov is the U.S. government's official web portal to all federal, state and local government web resources and services.